Location: B�hl
(48.6968°N, 8.1352°E)
Time: 23:03:50
(UTC+00:00)

Cosmos 2237 Rocket - Pass Details

Date: 08 March 2021
Orbit: 835 x 849 km, 71.0° (Epoch: 20 April)

Event Time Altitude Azimuth Distance (km) Brightness Sun altitude
Rises 19:09:36 0° 188° (S) 3,397 5.3 -18.4°
Reaches altitude 10° 19:12:06 10° 183° (S) 2,467 4.5 -18.8°
Maximum altitude 19:17:31 49° 110° (ESE) 1,087 2.3 -19.7°
Drops below altitude 10° 19:23:00 10° 37° (NE) 2,485 4.4 -20.5°
Sets 19:25:31 0° 32° (NNE) 3,424 5.2 -20.9°
